Location: Newark
(31.5350°N, 35.0986°E)
Time: 17:56:45
(UTC+00:00)

A-11 Canister half - All Passes

Search period start: 23 September 2019 00:00
Search period end: 03 October 2019 00:00
Orbit: 1527 x 1682 km, 47.3° (Epoch: 22 September)

Date Brightness Start Highest point End Pass type
(mag) Time Alt. Az. Time Alt. Az. Time Alt. Az.
23 Sep - 01:16:24 10° WSW 01:25:28 54° NNW 01:34:50 10° NE visible
23 Sep - 03:24:19 10° WNW 03:32:30 31° N 03:40:54 10° NE daylight
23 Sep - 05:31:02 10° NW 05:40:02 41° NNE 05:49:15 10° E daylight
23 Sep - 07:36:06 10° NW 07:45:59 85° SW 07:56:07 10° SE daylight
23 Sep - 09:42:59 10° WNW 09:50:13 23° SW 09:57:33 10° S daylight
23 Sep - 22:50:04 10° SSW 22:58:53 49° SE 23:07:49 10° ENE visible
24 Sep - 00:54:41 10° WSW 01:03:48 56° NNW 01:13:11 10° NE visible
24 Sep - 03:02:34 10° WNW 03:10:44 31° N 03:19:08 10° NE visible
24 Sep - 05:09:23 10° NW 05:18:17 39° NNE 05:27:27 10° E daylight
24 Sep - 07:14:28 10° NW 07:24:19 89° SW 07:34:27 10° SE daylight
24 Sep - 09:21:08 10° WNW 09:28:37 25° SW 09:36:14 10° S daylight
24 Sep - 22:28:36 10° SSW 22:37:18 47° SE 22:46:07 10° ENE visible
25 Sep - 00:33:00 10° WSW 00:42:08 58° NNW 00:51:32 10° NE visible
25 Sep - 02:40:49 10° WNW 02:48:59 32° N 02:57:23 10° NE visible
25 Sep - 04:47:44 10° NW 04:56:34 38° NNE 05:05:37 10° E daylight
25 Sep - 06:52:50 10° NW 07:02:41 88° NE 07:12:47 10° SE daylight
25 Sep - 08:59:17 10° WNW 09:07:02 27° SW 09:14:55 10° S daylight
25 Sep - 22:07:07 10° SSW 22:15:44 44° SE 22:24:24 10° ENE visible
26 Sep - 00:11:18 10° WSW 00:20:29 61° NNW 00:29:53 10° NE visible
26 Sep - 02:19:04 10° WNW 02:27:15 32° N 02:35:38 10° NE visible
26 Sep - 04:26:06 10° NW 04:34:50 37° NNE 04:43:48 10° E daylight
26 Sep - 06:31:13 10° NW 06:41:01 84° NE 06:51:07 10° SE daylight
26 Sep - 08:37:29 10° WNW 08:45:26 28° SW 08:53:33 10° S daylight
26 Sep - 21:45:41 10° SSW 21:54:09 41° SE 22:02:42 10° ENE visible
26 Sep - 23:49:37 10° WSW 23:58:49 63° NNW 00:08:15 10° NE visible
27 Sep - 01:57:18 10° WNW 02:05:30 32° N 02:13:54 10° NE visible
27 Sep - 04:04:27 10° NW 04:13:06 36° NNE 04:21:59 10° E daylight
27 Sep - 06:09:35 10° NW 06:19:22 81° NE 06:29:25 10° SE daylight
27 Sep - 08:15:41 10° WNW 08:23:50 30° SW 08:32:10 10° S daylight
27 Sep - 21:24:14 10° SSW 21:32:35 39° SE 21:40:58 10° ENE visible
27 Sep - 23:27:57 10° WSW 23:37:11 66° NW 23:46:36 10° NE visible
28 Sep - 01:35:33 10° WNW 01:43:46 33° N 01:52:10 10° NE visible
28 Sep - 03:42:48 10° NW 03:51:22 35° NNE 04:00:09 10° E daylight
28 Sep - 05:47:58 10° NW 05:57:42 78° NE 06:07:44 10° ESE daylight
28 Sep - 07:53:55 10° WNW 08:02:14 32° SW 08:10:45 10° S daylight
28 Sep - 21:02:49 10° SSW 21:11:01 36° SE 21:19:14 10° ENE visible
28 Sep - 23:06:17 10° WSW 23:15:32 69° NW 23:24:58 10° NE visible
29 Sep - 01:13:48 10° WNW 01:22:02 33° NNW 01:30:27 10° NE visible
29 Sep - 03:21:08 10° NW 03:29:37 35° NNE 03:38:20 10° ENE daylight
29 Sep - 05:26:20 10° NW 05:36:03 74° NE 05:46:02 10° ESE daylight
29 Sep - 07:32:09 10° WNW 07:40:38 34° SW 07:49:20 10° S daylight
29 Sep - 20:41:25 10° S 20:49:27 34° SE 20:57:30 10° ENE night (unlit)
29 Sep - 22:44:37 10° WSW 22:53:54 72° NW 23:03:20 10° NE visible
30 Sep - 00:52:02 10° WNW 01:00:17 34° NNW 01:08:45 10° NE visible
30 Sep - 02:59:28 10° NW 03:07:53 34° NNE 03:16:31 10° ENE visible
30 Sep - 05:04:44 10° NW 05:14:23 71° NE 05:24:19 10° ESE daylight
30 Sep - 07:10:25 10° WNW 07:19:03 37° SW 07:27:53 10° SSE daylight
30 Sep - 20:20:02 10° S 20:27:53 32° SE 20:35:44 10° ENE night (unlit)
30 Sep - 22:22:58 10° WSW 22:32:16 75° NW 22:41:42 10° NE visible
01 Oct - 00:30:17 10° WNW 00:38:34 34° NNW 00:47:03 10° NE visible
01 Oct - 02:37:48 10° NW 02:46:09 33° NNE 02:54:41 10° ENE visible
01 Oct - 04:43:07 10° NW 04:52:43 68° NE 05:02:36 10° ESE daylight
01 Oct - 06:48:41 10° WNW 06:57:27 39° SW 07:06:26 10° SSE daylight
01 Oct - 19:58:39 10° S 20:06:20 30° SE 20:13:59 10° ENE night (unlit)
01 Oct - 22:01:19 10° SW 22:10:38 78° NW 22:20:03 10° NE visible
02 Oct - 00:08:31 10° W 00:16:50 35° NNW 00:25:20 10° NE visible
02 Oct - 02:16:08 10° NW 02:24:25 33° N 02:32:53 10° ENE visible
02 Oct - 04:21:30 10° NW 04:31:03 65° NE 04:40:53 10° ESE daylight
02 Oct - 06:26:59 10° WNW 06:35:51 41° SW 06:44:57 10° SSE daylight
02 Oct - 19:37:19 10° S 19:44:46 28° SE 19:52:11 10° ENE night (unlit)
02 Oct - 21:39:41 10° SW 21:49:01 82° NW 21:58:26 10° NE visible
